When you browse on this site, cookies collect data to enhance your experience and personalize the content and advertising you see.
Visit our Privacy Policy to learn more. By continuing to use the site, you agree to this use of cookies and data.
  • In Hungary
  • List of Countries
  • For 7 days
  • Water Temperature
  • Satellite Maps
  • Weather Map
  • News
  • Weather Widgets
  • user-avatar
    Login

    Hourly Weather Vysocany

    Today, 19 December, Wednesday

    Time Temperature Precipitation Wind Pressure Humidity
    00:00 -1°C° 0 mm 3 mps 745 mmHg 93%
    01:00 -2°C° 0 mm 2 mps 744 mmHg 92%
    02:00 -2°C° 0 mm 3 mps 744 mmHg 92%
    03:00 -1°C° 0 mm 3 mps 744 mmHg 91%
    04:00 -2°C° 0 mm 4 mps 743 mmHg 91%
    05:00 -2°C° 0 mm 3 mps 743 mmHg 91%
    06:00 -2°C° 0 mm 3 mps 743 mmHg 91%
    07:00 -2°C° 0 mm 3 mps 743 mmHg 91%
    08:00 -2°C° 0 mm 3 mps 743 mmHg 89%
    09:00 -1°C° 0 mm 3 mps 743 mmHg 87%
    10:00 -2°C° 0 mm 4 mps 743 mmHg 84%
    11:00 -1°C° 0 mm 3 mps 743 mmHg 83%
    12:00 0°C° 0 mm 3 mps 742 mmHg 81%
    13:00 0°C° 0 mm 3 mps 742 mmHg 79%
    14:00 0°C° 0 mm 3 mps 742 mmHg 81%
    15:00 0°C° 0 mm 3 mps 742 mmHg 83%
    16:00 -1°C° 0 mm 3 mps 741 mmHg 85%
    17:00 -1°C° 0.2 mm 3 mps 741 mmHg 87%
    18:00 -1°C° 0.2 mm 3 mps 741 mmHg 89%
    19:00 -1°C° 0.2 mm 3 mps 741 mmHg 90%
    20:00 -1°C° 0.2 mm 3 mps 741 mmHg 91%
    21:00 -1°C° 0.2 mm 3 mps 740 mmHg 91%
    22:00 -2°C° 0.2 mm 3 mps 740 mmHg 92%
    23:00 -2°C° 0.1 mm 2 mps 740 mmHg 91%

    Tomorrow, 20 December, Thursday

    Time Temperature Precipitation Wind Pressure Humidity
    00:00 -2°C° 0.1 mm 2 mps 741 mmHg 91%
    01:00 -2°C° 0.1 mm 2 mps 741 mmHg 91%
    02:00 -2°C° 0.3 mm 2 mps 741 mmHg 91%
    03:00 -2°C° 0.3 mm 2 mps 741 mmHg 91%
    04:00 -2°C° 0.3 mm 2 mps 741 mmHg 92%
    05:00 -2°C° 0.3 mm 2 mps 741 mmHg 92%
    06:00 0°C° 0.3 mm 1 mps 741 mmHg 92%
    07:00 0°C° 0.3 mm 1 mps 741 mmHg 93%
    08:00 0°C° 0.2 mm 1 mps 741 mmHg 93%
    09:00 -1°C° 0.2 mm 2 mps 741 mmHg 93%
    10:00 -1°C° 0.2 mm 2 mps 742 mmHg 93%
    11:00 +1°C° 0.2 mm 2 mps 742 mmHg 94%
    12:00 +1°C° 0.2 mm 2 mps 741 mmHg 94%
    13:00 +2°C° 0.2 mm 2 mps 741 mmHg 94%
    14:00 +2°C° 0 mm 2 mps 741 mmHg 94%
    15:00 +2°C° 0 mm 2 mps 741 mmHg 94%
    16:00 +2°C° 0 mm 2 mps 742 mmHg 94%
    17:00 +2°C° 0 mm 2 mps 742 mmHg 93%
    18:00 +2°C° 0 mm 2 mps 742 mmHg 93%
    19:00 +2°C° 0 mm 2 mps 742 mmHg 92%
    20:00 +1°C° 0.1 mm 3 mps 742 mmHg 92%
    21:00 +1°C° 0.1 mm 3 mps 742 mmHg 92%
    22:00 +1°C° 0.1 mm 3 mps 742 mmHg 91%
    23:00 +1°C° 0 mm 3 mps 742 mmHg 91%

    Day after tomorrow, 21 December, Friday

    Time Temperature Precipitation Wind Pressure Humidity
    00:00 +1°C° 0 mm 3 mps 742 mmHg 91%
    01:00 +1°C° 0 mm 3 mps 741 mmHg 90%
    02:00 +1°C° 0.1 mm 3 mps 741 mmHg 90%
    03:00 0°C° 0.1 mm 4 mps 741 mmHg 89%
    04:00 +1°C° 0.1 mm 4 mps 740 mmHg 89%
    05:00 +1°C° 0.2 mm 4 mps 740 mmHg 88%
    06:00 +1°C° 0.2 mm 4 mps 739 mmHg 87%
    07:00 +1°C° 0.2 mm 4 mps 739 mmHg 86%
    08:00 +1°C° 0.9 mm 4 mps 739 mmHg 87%
    09:00 +1°C° 0.9 mm 4 mps 738 mmHg 88%
    10:00 +1°C° 0.9 mm 4 mps 738 mmHg 89%
    11:00 +3°C° 1.1 mm 4 mps 737 mmHg 88%
    12:00 +3°C° 1.1 mm 4 mps 736 mmHg 87%
    13:00 +2°C° 1.1 mm 5 mps 735 mmHg 86%
    14:00 +3°C° 0.9 mm 5 mps 735 mmHg 87%
    15:00 +3°C° 0.9 mm 6 mps 734 mmHg 88%
    16:00 +4°C° 0.9 mm 6 mps 734 mmHg 88%
    17:00 +4°C° 1 mm 6 mps 734 mmHg 88%
    18:00 +5°C° 1 mm 7 mps 733 mmHg 87%
    19:00 +6°C° 1 mm 7 mps 733 mmHg 87%
    20:00 +6°C° 0.3 mm 7 mps 733 mmHg 87%
    21:00 +6°C° 0.3 mm 7 mps 733 mmHg 88%
    22:00 +6°C° 0.3 mm 7 mps 733 mmHg 88%
    23:00 +7°C° 0.2 mm 6 mps 733 mmHg 88%

    22 December, Saturday

    Time Temperature Precipitation Wind Pressure Humidity
    00:00 +7°C° 0.2 mm 6 mps 734 mmHg 87%
    01:00 +7°C° 0.2 mm 6 mps 734 mmHg 86%
    02:00 +7°C° 0 mm 5 mps 734 mmHg 86%
    03:00 +7°C° 0 mm 5 mps 734 mmHg 87%
    04:00 +6°C° 0 mm 4 mps 734 mmHg 87%
    05:00 +6°C° 0 mm 4 mps 734 mmHg 87%
    06:00 +5°C° 0 mm 4 mps 734 mmHg 88%
    07:00 +5°C° 0 mm 3 mps 733 mmHg 88%
    08:00 +6°C° 1 mm 4 mps 734 mmHg 88%
    09:00 +6°C° 1 mm 4 mps 734 mmHg 89%
    10:00 +6°C° 1 mm 5 mps 734 mmHg 89%
    11:00 +7°C° 0.4 mm 6 mps 734 mmHg 84%
    12:00 +8°C° 0.4 mm 7 mps 734 mmHg 78%
    13:00 +9°C° 0.4 mm 8 mps 734 mmHg 73%
    14:00 +7°C° 0.2 mm 8 mps 735 mmHg 72%
    15:00 +6°C° 0.2 mm 8 mps 736 mmHg 71%
    16:00 +5°C° 0.2 mm 7 mps 737 mmHg 71%
    17:00 +5°C° 0 mm 7 mps 737 mmHg 73%
    18:00 +4°C° 0 mm 6 mps 738 mmHg 75%
    19:00 +5°C° 0 mm 5 mps 738 mmHg 77%
    20:00 +5°C° 0 mm 5 mps 738 mmHg 79%
    21:00 +3°C° 0 mm 5 mps 738 mmHg 81%
    22:00 +3°C° 0 mm 5 mps 739 mmHg 82%
    23:00 +4°C° 0.4 mm 4 mps 739 mmHg 84%

    23 December, Sunday

    Time Temperature Precipitation Wind Pressure Humidity
    00:00 +5°C° 0.4 mm 4 mps 739 mmHg 87%
    01:00 +5°C° 0.4 mm 4 mps 739 mmHg 89%
    02:00 +4°C° 0.9 mm 4 mps 739 mmHg 88%
    03:00 +4°C° 0.9 mm 4 mps 739 mmHg 88%
    04:00 +4°C° 0.9 mm 4 mps 739 mmHg 88%
    05:00 +4°C° 0.2 mm 4 mps 740 mmHg 87%
    06:00 +4°C° 0.2 mm 4 mps 740 mmHg 86%
    07:00 +3°C° 0.2 mm 4 mps 740 mmHg 85%
    08:00 +4°C° 0 mm 4 mps 741 mmHg 84%
    09:00 +4°C° 0 mm 4 mps 741 mmHg 82%
    10:00 +4°C° 0 mm 4 mps 741 mmHg 80%
    11:00 +5°C° 0 mm 5 mps 742 mmHg 77%
    12:00 +5°C° 0 mm 5 mps 742 mmHg 74%
    13:00 +6°C° 0 mm 5 mps 742 mmHg 70%
    14:00 +5°C° 0.1 mm 5 mps 742 mmHg 73%
    15:00 +5°C° 0.1 mm 4 mps 742 mmHg 76%
    16:00 +4°C° 0.1 mm 4 mps 742 mmHg 78%
    17:00 +4°C° 0.1 mm 4 mps 742 mmHg 79%
    18:00 +4°C° 0.1 mm 4 mps 742 mmHg 80%
    19:00 +3°C° 0.1 mm 4 mps 742 mmHg 81%
    20:00 +3°C° 0.1 mm 4 mps 742 mmHg 81%
    21:00 +2°C° 0.1 mm 5 mps 743 mmHg 81%
    22:00 +2°C° 0.1 mm 5 mps 743 mmHg 81%
    23:00 +2°C° 0.1 mm 5 mps 743 mmHg 81%

    24 December, Monday

    Time Temperature Precipitation Wind Pressure Humidity
    00:00 +2°C° 0.1 mm 5 mps 743 mmHg 81%
    01:00 +2°C° 0.1 mm 5 mps 743 mmHg 81%
    02:00 +2°C° 0.1 mm 5 mps 744 mmHg 82%
    03:00 +2°C° 0.1 mm 5 mps 744 mmHg 82%
    04:00 +3°C° 0.1 mm 4 mps 744 mmHg 83%
    05:00 +1°C° 0.1 mm 4 mps 745 mmHg 84%
    06:00 +1°C° 0.1 mm 4 mps 745 mmHg 85%
    07:00 +1°C° 0.1 mm 4 mps 745 mmHg 86%
    08:00 +1°C° 0 mm 4 mps 746 mmHg 85%
    09:00 +1°C° 0 mm 4 mps 746 mmHg 83%
    10:00 +3°C° 0 mm 4 mps 747 mmHg 82%
    11:00 +3°C° 0 mm 4 mps 747 mmHg 80%
    12:00 +3°C° 0 mm 5 mps 747 mmHg 78%
    13:00 +3°C° 0 mm 5 mps 747 mmHg 76%
    14:00 +3°C° 0.1 mm 5 mps 747 mmHg 77%
    15:00 +4°C° 0.1 mm 4 mps 747 mmHg 78%
    16:00 +3°C° 0.1 mm 4 mps 747 mmHg 79%
    17:00 +3°C° 0 mm 4 mps 747 mmHg 81%
    18:00 +1°C° 0 mm 4 mps 748 mmHg 83%
    19:00 +1°C° 0 mm 4 mps 748 mmHg 84%
    20:00 +1°C° 0 mm 4 mps 748 mmHg 85%
    21:00 0°C° 0 mm 4 mps 748 mmHg 86%
    22:00 0°C° 0 mm 4 mps 748 mmHg 86%
    23:00 0°C° 0 mm 4 mps 748 mmHg 85%
    Show more